<?xml version="1.0" encoding="UTF-8"?>
<gpx
version="1.1"
creator="Kashmir3D 9.350 - http://www.kashmir3d.com"
xmlns:xsi="http://www.w3.org/2001/XMLSchema-instance"
xmlns="http://www.topografix.com/GPX/1/1"
xmlns:kashmir3d="http://www.kashmir3d.com/namespace/kashmir3d"
xsi:schemaLocation="http://www.topografix.com/GPX/1/1 http://www.topografix.com/GPX/1/1/gpx.xsd
	http://www.kashmir3d.com/namespace/kashmir3d http://www.kashmir3d.com/namespace/kashmir3d.xsd">
<trk>
 <name>香貫山</name>
 <number>1</number>
 <extensions>
 <kashmir3d:line_color>0000ff</kashmir3d:line_color>
 <kashmir3d:line_size>3</kashmir3d:line_size>
 <kashmir3d:line_style>1</kashmir3d:line_style>
 <kashmir3d:icon>901001</kashmir3d:icon>
 </extensions>
<trkseg>
<trkpt lat="35.096068" lon="138.874842">
 <ele>81.8</ele>
 <time>2020-03-24T16:35:53Z</time>
</trkpt>
<trkpt lat="35.095948" lon="138.874938">
 <ele>83.1</ele>
 <time>2020-03-24T16:35:53Z</time>
</trkpt>
<trkpt lat="35.095793" lon="138.875046">
 <ele>93.6</ele>
 <time>2020-03-24T16:35:54Z</time>
</trkpt>
<trkpt lat="35.095733" lon="138.875142">
 <ele>96.7</ele>
 <time>2020-03-24T16:35:54Z</time>
</trkpt>
<trkpt lat="35.095699" lon="138.875292">
 <ele>100.5</ele>
 <time>2020-03-24T16:35:54Z</time>
</trkpt>
<trkpt lat="35.095699" lon="138.875432">
 <ele>106.2</ele>
 <time>2020-03-24T16:35:54Z</time>
</trkpt>
<trkpt lat="35.095793" lon="138.875582">
 <ele>109.3</ele>
 <time>2020-03-24T16:35:54Z</time>
</trkpt>
<trkpt lat="35.095793" lon="138.875861">
 <ele>116.3</ele>
 <time>2020-03-24T16:35:54Z</time>
</trkpt>
<trkpt lat="35.095699" lon="138.876183">
 <ele>124.5</ele>
 <time>2020-03-24T16:35:54Z</time>
</trkpt>
<trkpt lat="35.095562" lon="138.876408">
 <ele>128.8</ele>
 <time>2020-03-24T16:35:54Z</time>
</trkpt>
<trkpt lat="35.095321" lon="138.876515">
 <ele>131.1</ele>
 <time>2020-03-24T16:35:54Z</time>
</trkpt>
<trkpt lat="35.095081" lon="138.876591">
 <ele>136.5</ele>
 <time>2020-03-24T16:35:54Z</time>
</trkpt>
<trkpt lat="35.094772" lon="138.876655">
 <ele>138</ele>
 <time>2020-03-24T16:35:55Z</time>
</trkpt>
<trkpt lat="35.094695" lon="138.876762">
 <ele>142.5</ele>
 <time>2020-03-24T16:35:55Z</time>
</trkpt>
<trkpt lat="35.094540" lon="138.876912">
 <ele>145.1</ele>
 <time>2020-03-24T16:35:55Z</time>
</trkpt>
<trkpt lat="35.094317" lon="138.877052">
 <ele>149.9</ele>
 <time>2020-03-24T16:35:55Z</time>
</trkpt>
<trkpt lat="35.094154" lon="138.877170">
 <ele>156.8</ele>
 <time>2020-03-24T16:35:55Z</time>
</trkpt>
<trkpt lat="35.093914" lon="138.877256">
 <ele>158.9</ele>
 <time>2020-03-24T16:35:55Z</time>
</trkpt>
<trkpt lat="35.093733" lon="138.877331">
 <ele>165.8</ele>
 <time>2020-03-24T16:35:55Z</time>
</trkpt>
<trkpt lat="35.093613" lon="138.877331">
 <ele>165.9</ele>
 <time>2020-03-24T16:35:55Z</time>
</trkpt>
<trkpt lat="35.093407" lon="138.877277">
 <ele>160.9</ele>
 <time>2020-03-24T16:35:55Z</time>
</trkpt>
<trkpt lat="35.093261" lon="138.877288">
 <ele>160</ele>
 <time>2020-03-24T16:35:55Z</time>
</trkpt>
<trkpt lat="35.093107" lon="138.877331">
 <ele>164.6</ele>
 <time>2020-03-24T16:35:56Z</time>
</trkpt>
<trkpt lat="35.092944" lon="138.877470">
 <ele>174.1</ele>
 <time>2020-03-24T16:35:56Z</time>
</trkpt>
<trkpt lat="35.092789" lon="138.877610">
 <ele>181</ele>
 <time>2020-03-24T16:35:56Z</time>
</trkpt>
<trkpt lat="35.092609" lon="138.877706">
 <ele>184.5</ele>
 <time>2020-03-24T16:35:56Z</time>
</trkpt>
<trkpt lat="35.092429" lon="138.877728">
 <ele>188</ele>
 <time>2020-03-24T16:35:56Z</time>
</trkpt>
<trkpt lat="35.092257" lon="138.877663">
 <ele>191.5</ele>
 <time>2020-03-24T16:35:56Z</time>
</trkpt>
<trkpt lat="35.092194" lon="138.877556">
 <ele>190.6</ele>
 <time>2020-03-24T16:35:56Z</time>
</trkpt>
<trkpt lat="35.092094" lon="138.877513">
 <ele>192.6</ele>
 <time>2020-03-24T16:35:56Z</time>
</trkpt>
<trkpt lat="35.092000" lon="138.877309">
 <ele>188.7</ele>
 <time>2020-03-24T16:35:56Z</time>
</trkpt>
<trkpt lat="35.091965" lon="138.877020">
 <ele>180.7</ele>
 <time>2020-03-24T16:35:56Z</time>
</trkpt>
<trkpt lat="35.091922" lon="138.876912">
 <ele>175.9</ele>
 <time>2020-03-24T16:35:57Z</time>
</trkpt>
<trkpt lat="35.091854" lon="138.876827">
 <ele>173.7</ele>
 <time>2020-03-24T16:35:57Z</time>
</trkpt>
<trkpt lat="35.091819" lon="138.876762">
 <ele>173.2</ele>
 <time>2020-03-24T16:35:57Z</time>
</trkpt>
<trkpt lat="35.091819" lon="138.876472">
 <ele>170.9</ele>
 <time>2020-03-24T16:35:57Z</time>
</trkpt>
<trkpt lat="35.091811" lon="138.876408">
 <ele>170.2</ele>
 <time>2020-03-24T16:35:57Z</time>
</trkpt>
<trkpt lat="35.091759" lon="138.876322">
 <ele>170.2</ele>
 <time>2020-03-24T16:35:57Z</time>
</trkpt>
<trkpt lat="35.091776" lon="138.876236">
 <ele>171.8</ele>
 <time>2020-03-24T16:35:57Z</time>
</trkpt>
<trkpt lat="35.091819" lon="138.875968">
 <ele>182.2</ele>
 <time>2020-03-24T16:35:57Z</time>
</trkpt>
<trkpt lat="35.091845" lon="138.875721">
 <ele>183.9</ele>
 <time>2020-03-24T16:35:57Z</time>
</trkpt>
<trkpt lat="35.091819" lon="138.875958">
 <ele>182.2</ele>
 <time>2020-03-24T16:35:58Z</time>
</trkpt>
<trkpt lat="35.091673" lon="138.875936">
 <ele>181</ele>
 <time>2020-03-24T16:35:58Z</time>
</trkpt>
<trkpt lat="35.091588" lon="138.875807">
 <ele>180.3</ele>
 <time>2020-03-24T16:35:58Z</time>
</trkpt>
<trkpt lat="35.091570" lon="138.875657">
 <ele>179.1</ele>
 <time>2020-03-24T16:35:58Z</time>
</trkpt>
<trkpt lat="35.091528" lon="138.875657">
 <ele>178.3</ele>
 <time>2020-03-24T16:35:58Z</time>
</trkpt>
<trkpt lat="35.091510" lon="138.875797">
 <ele>177.5</ele>
 <time>2020-03-24T16:35:58Z</time>
</trkpt>
<trkpt lat="35.091562" lon="138.875958">
 <ele>174.2</ele>
 <time>2020-03-24T16:35:58Z</time>
</trkpt>
<trkpt lat="35.091691" lon="138.876172">
 <ele>172.4</ele>
 <time>2020-03-24T16:35:58Z</time>
</trkpt>
<trkpt lat="35.091751" lon="138.876322">
 <ele>169.3</ele>
 <time>2020-03-24T16:35:58Z</time>
</trkpt>
<trkpt lat="35.091708" lon="138.876548">
 <ele>166.8</ele>
 <time>2020-03-24T16:35:58Z</time>
</trkpt>
<trkpt lat="35.091639" lon="138.876633">
 <ele>165.3</ele>
 <time>2020-03-24T16:35:59Z</time>
</trkpt>
<trkpt lat="35.091631" lon="138.876451">
 <ele>164.7</ele>
 <time>2020-03-24T16:35:59Z</time>
</trkpt>
<trkpt lat="35.091631" lon="138.876354">
 <ele>164.3</ele>
 <time>2020-03-24T16:35:59Z</time>
</trkpt>
<trkpt lat="35.091553" lon="138.876183">
 <ele>165</ele>
 <time>2020-03-24T16:35:59Z</time>
</trkpt>
<trkpt lat="35.091382" lon="138.875979">
 <ele>164.5</ele>
 <time>2020-03-24T16:35:59Z</time>
</trkpt>
<trkpt lat="35.091261" lon="138.875807">
 <ele>162.8</ele>
 <time>2020-03-24T16:35:59Z</time>
</trkpt>
<trkpt lat="35.091227" lon="138.875625">
 <ele>162.4</ele>
 <time>2020-03-24T16:35:59Z</time>
</trkpt>
<trkpt lat="35.091201" lon="138.875464">
 <ele>159.1</ele>
 <time>2020-03-24T16:35:59Z</time>
</trkpt>
<trkpt lat="35.091236" lon="138.875335">
 <ele>158.4</ele>
 <time>2020-03-24T16:35:59Z</time>
</trkpt>
<trkpt lat="35.091356" lon="138.875228">
 <ele>157.2</ele>
 <time>2020-03-24T16:35:59Z</time>
</trkpt>
<trkpt lat="35.091476" lon="138.875153">
 <ele>156.6</ele>
 <time>2020-03-24T16:36:00Z</time>
</trkpt>
<trkpt lat="35.091570" lon="138.874970">
 <ele>155.3</ele>
 <time>2020-03-24T16:36:00Z</time>
</trkpt>
<trkpt lat="35.091742" lon="138.874981">
 <ele>155.2</ele>
 <time>2020-03-24T16:36:00Z</time>
</trkpt>
<trkpt lat="35.092000" lon="138.874992">
 <ele>152.5</ele>
 <time>2020-03-24T16:36:00Z</time>
</trkpt>
<trkpt lat="35.092163" lon="138.874949">
 <ele>151.6</ele>
 <time>2020-03-24T16:36:00Z</time>
</trkpt>
<trkpt lat="35.092343" lon="138.874949">
 <ele>152.6</ele>
 <time>2020-03-24T16:36:00Z</time>
</trkpt>
<trkpt lat="35.092480" lon="138.874874">
 <ele>151.7</ele>
 <time>2020-03-24T16:36:00Z</time>
</trkpt>
<trkpt lat="35.092609" lon="138.874788">
 <ele>149</ele>
 <time>2020-03-24T16:36:00Z</time>
</trkpt>
<trkpt lat="35.092772" lon="138.874895">
 <ele>146.5</ele>
 <time>2020-03-24T16:36:00Z</time>
</trkpt>
<trkpt lat="35.092867" lon="138.874992">
 <ele>145.5</ele>
 <time>2020-03-24T16:36:00Z</time>
</trkpt>
<trkpt lat="35.092858" lon="138.875196">
 <ele>143.2</ele>
 <time>2020-03-24T16:36:01Z</time>
</trkpt>
<trkpt lat="35.092583" lon="138.875561">
 <ele>138.8</ele>
 <time>2020-03-24T16:36:01Z</time>
</trkpt>
<trkpt lat="35.092420" lon="138.875786">
 <ele>137</ele>
 <time>2020-03-24T16:36:01Z</time>
</trkpt>
<trkpt lat="35.092334" lon="138.875947">
 <ele>138.5</ele>
 <time>2020-03-24T16:36:01Z</time>
</trkpt>
<trkpt lat="35.092300" lon="138.876129">
 <ele>137.9</ele>
 <time>2020-03-24T16:36:01Z</time>
</trkpt>
<trkpt lat="35.092240" lon="138.876312">
 <ele>135.8</ele>
 <time>2020-03-24T16:36:01Z</time>
</trkpt>
<trkpt lat="35.092231" lon="138.876430">
 <ele>135.9</ele>
 <time>2020-03-24T16:36:01Z</time>
</trkpt>
<trkpt lat="35.092300" lon="138.876537">
 <ele>135.1</ele>
 <time>2020-03-24T16:36:01Z</time>
</trkpt>
<trkpt lat="35.092429" lon="138.876623">
 <ele>132.8</ele>
 <time>2020-03-24T16:36:01Z</time>
</trkpt>
<trkpt lat="35.092558" lon="138.876762">
 <ele>135.4</ele>
 <time>2020-03-24T16:36:01Z</time>
</trkpt>
<trkpt lat="35.092635" lon="138.876827">
 <ele>132.4</ele>
 <time>2020-03-24T16:36:02Z</time>
</trkpt>
<trkpt lat="35.092764" lon="138.876773">
 <ele>131.7</ele>
 <time>2020-03-24T16:36:02Z</time>
</trkpt>
<trkpt lat="35.092978" lon="138.876709">
 <ele>130.2</ele>
 <time>2020-03-24T16:36:02Z</time>
</trkpt>
<trkpt lat="35.093090" lon="138.876644">
 <ele>126.9</ele>
 <time>2020-03-24T16:36:02Z</time>
</trkpt>
<trkpt lat="35.093227" lon="138.876709">
 <ele>125.7</ele>
 <time>2020-03-24T16:36:02Z</time>
</trkpt>
<trkpt lat="35.093364" lon="138.876762">
 <ele>125.3</ele>
 <time>2020-03-24T16:36:02Z</time>
</trkpt>
<trkpt lat="35.093502" lon="138.876709">
 <ele>121.6</ele>
 <time>2020-03-24T16:36:02Z</time>
</trkpt>
<trkpt lat="35.093622" lon="138.876676">
 <ele>120.7</ele>
 <time>2020-03-24T16:36:02Z</time>
</trkpt>
<trkpt lat="35.093742" lon="138.876730">
 <ele>118.7</ele>
 <time>2020-03-24T16:36:02Z</time>
</trkpt>
<trkpt lat="35.094051" lon="138.876633">
 <ele>115</ele>
 <time>2020-03-24T16:36:03Z</time>
</trkpt>
<trkpt lat="35.094163" lon="138.876558">
 <ele>114.5</ele>
 <time>2020-03-24T16:36:03Z</time>
</trkpt>
<trkpt lat="35.094291" lon="138.876376">
 <ele>113.3</ele>
 <time>2020-03-24T16:36:03Z</time>
</trkpt>
<trkpt lat="35.094369" lon="138.876247">
 <ele>110.4</ele>
 <time>2020-03-24T16:36:03Z</time>
</trkpt>
<trkpt lat="35.094463" lon="138.876204">
 <ele>109.3</ele>
 <time>2020-03-24T16:36:03Z</time>
</trkpt>
<trkpt lat="35.094592" lon="138.876215">
 <ele>107.4</ele>
 <time>2020-03-24T16:36:03Z</time>
</trkpt>
<trkpt lat="35.094678" lon="138.876247">
 <ele>110</ele>
 <time>2020-03-24T16:36:03Z</time>
</trkpt>
<trkpt lat="35.094798" lon="138.876118">
 <ele>105.6</ele>
 <time>2020-03-24T16:36:03Z</time>
</trkpt>
<trkpt lat="35.094909" lon="138.876054">
 <ele>103.3</ele>
 <time>2020-03-24T16:36:03Z</time>
</trkpt>
<trkpt lat="35.095038" lon="138.875915">
 <ele>100.3</ele>
 <time>2020-03-24T16:36:03Z</time>
</trkpt>
<trkpt lat="35.095107" lon="138.875775">
 <ele>99.9</ele>
 <time>2020-03-24T16:36:04Z</time>
</trkpt>
<trkpt lat="35.095270" lon="138.875732">
 <ele>99.2</ele>
 <time>2020-03-24T16:36:04Z</time>
</trkpt>
<trkpt lat="35.095390" lon="138.875689">
 <ele>98.6</ele>
 <time>2020-03-24T16:36:04Z</time>
</trkpt>
<trkpt lat="35.095484" lon="138.875550">
 <ele>93.7</ele>
 <time>2020-03-24T16:36:04Z</time>
</trkpt>
<trkpt lat="35.095553" lon="138.875378">
 <ele>93.7</ele>
 <time>2020-03-24T16:36:04Z</time>
</trkpt>
<trkpt lat="35.095596" lon="138.875110">
 <ele>90.8</ele>
 <time>2020-03-24T16:36:04Z</time>
</trkpt>
<trkpt lat="35.095665" lon="138.874938">
 <ele>88.1</ele>
 <time>2020-03-24T16:36:04Z</time>
</trkpt>
<trkpt lat="35.095811" lon="138.874852">
 <ele>85.3</ele>
 <time>2020-03-24T16:36:04Z</time>
</trkpt>
<trkpt lat="35.095939" lon="138.874842">
 <ele>83</ele>
 <time>2020-03-24T16:36:04Z</time>
</trkpt>
<trkpt lat="35.095965" lon="138.874928">
 <ele>83.1</ele>
 <time>2020-03-24T16:36:04Z</time>
</trkpt>
<trkpt lat="35.096077" lon="138.874852">
 <ele>81.1</ele>
 <time>2020-03-24T16:36:05Z</time>
</trkpt>
</trkseg>
</trk>
</gpx>

